Simultaneous Nadir Overpasses (SNOs) Predictions

Prediction of SNOs between GOES-15 and TERRA Satellite Orbit:

Table of predicted SNOs for the next 14.0 days since TLE Epoch: 8/15/2018
Index Date Time (GOES-15) GOES-15 Lat,Lon TERRA Lat,Lon Distance(km) Time Diff (sec)
1 08/15/2018 07:23:24 -0.11,-135.13 0.23,-133.57 177.80 80
2 08/15/2018 19:47:19 0.15,-135.16 0.90,-138.72 404.10 80
3 08/17/2018 19:35:07 0.15,-135.10 0.31,-135.75 74.64 80
4 08/19/2018 19:20:16 0.14,-135.04 -0.34,-132.80 254.25 80
5 08/20/2018 07:44:19 -0.18,-134.97 -0.84,-137.98 342.26 80
6 08/22/2018 07:32:08 -0.18,-134.90 -0.20,-135.03 14.16 80
7 08/24/2018 07:17:17 -0.17,-134.83 0.44,-132.08 313.36 80
8 08/24/2018 19:41:12 0.21,-134.85 0.70,-137.22 269.31 80
9 08/26/2018 19:26:21 0.20,-134.77 0.07,-134.27 57.59 80
10 08/28/2018 19:14:10 0.19,-134.69 -0.55,-131.32 384.00 80




NCC Satellite Simultaneous Nadir Overpasses (SNOs) Prediction Service
